Kaneohe MCBH, HI

9:01 PM HST on June 27, 2017 (GMT -1000)
Kaneohe Bay Marine Corps Air Facility

Weather History for PHNG - February, 2013

Change the Weather History Date:

Tuesday, February 5, 2013

  Actual Average Record
Temperature  
Mean Temperature 74 °F -  
Max Temperature 81 °F 75 °F 81 °F (2003)
Min Temperature 68 °F 66 °F 61 °F (2011)
Cooling Degree Days 10    
Growing Degree Days 24 (Base 50)    
Moisture  
Dew Point 61 °F    
Average Humidity 63    
Maximum Humidity 81    
Minimum Humidity 48    
Precipitation  
Precipitation 0.00 in - - ()
Sea Level Pressure  
Sea Level Pressure 30.08 in    
Wind  
Wind Speed 13 mph (ENE)    
Max Wind Speed 16 mph    
Max Gust Speed 24 mph    
Visibility 10 miles    
Events      
Averages and records for this station are not official NWS values.
T = Trace of Precipitation, MM = Missing Value Source: NWS Daily Summary

Daily Weather History Graph

Daily Weather History Graph

Search for Another Location

Airport or City:

Trip Planner

Search our weather history database for the weather conditions in past years. The results will help you decide how hot, cold, wet, or windy it might be!

Date:

Astronomy

Feb. 05, 2013 Rise Set
Actual Time 7:06 AM HST 6:23 PM HST
Civil Twilight 6:43 AM HST 6:46 PM HST
Nautical Twilight 6:17 AM HST 7:13 PM HST
Astronomical Twilight 5:50 AM HST 7:39 PM HST
Moon 2:47 AM HST (2/5) 2:05 PM HST (2/5)
Length of Visible Light 12h 03m
Length of Day
11h 16m
Waning Crescent, 24% of the Moon is Illuminated
Feb 5
Waning Crescent
Feb 9
New
Feb 17
First Quarter
Feb 25
Full
Mar 4
Last Quarter

Hourly Weather History & Observations

Time (HST) Temp. Heat Index Dew Point Humidity Pressure Visibility Wind Dir Wind Speed Gust Speed Precip Events Conditions
12:57 AM 68.9 °F - 63.0 °F 81% 30.10 in 10.0 mi ENE 16.1 mph 24.2 mph 0.00 in   Overcast
1:57 AM 70.9 °F - 60.1 °F 69% 30.09 in 10.0 mi ENE 11.5 mph 19.6 mph N/A   Clear
2:57 AM 72.0 °F - 60.1 °F 66% 30.06 in 10.0 mi East 12.7 mph 20.7 mph N/A   Clear
3:57 AM 71.2 °F - 59.0 °F 65% 30.06 in 10.0 mi ENE 11.5 mph 18.4 mph N/A   Scattered Clouds
4:57 AM 71.2 °F - 62.1 °F 73% 30.06 in 10.0 mi ENE 11.5 mph 19.6 mph N/A   Mostly Cloudy
5:57 AM 71.2 °F - 59.0 °F 65% 30.07 in 10.0 mi East 13.8 mph 19.6 mph N/A   Overcast
6:57 AM 71.2 °F - 59.0 °F 65% 30.08 in 10.0 mi East 11.5 mph 18.4 mph N/A   Mostly Cloudy
7:57 AM 72.5 °F - 57.9 °F 60% 30.09 in 10.0 mi ENE 10.4 mph 19.6 mph N/A   Clear
8:57 AM 73.2 °F - 59.0 °F 61% 30.10 in 10.0 mi ENE 11.5 mph 19.6 mph N/A   Clear
9:57 AM 75.9 °F - 59.0 °F 56% 30.11 in 10.0 mi ENE 12.7 mph 20.7 mph N/A   Scattered Clouds
10:57 AM 81.3 °F 82.3 °F 62.1 °F 52% 30.10 in 10.0 mi East 13.8 mph 21.9 mph N/A   Mostly Cloudy
11:57 AM 79.7 °F - 61.0 °F 53% 30.09 in 10.0 mi ENE 12.7 mph 19.6 mph N/A   Scattered Clouds
12:57 PM 80.6 °F 81.5 °F 61.0 °F 51% 30.06 in 10.0 mi ENE 13.8 mph 20.7 mph N/A   Scattered Clouds
1:57 PM 80.6 °F 81.1 °F 59.0 °F 48% 30.05 in 10.0 mi ENE 12.7 mph 18.4 mph N/A   Scattered Clouds
2:57 PM 80.6 °F 81.1 °F 59.0 °F 48% 30.04 in 10.0 mi NE 11.5 mph 17.3 mph N/A   Partly Cloudy
3:57 PM 78.8 °F - 59.0 °F 51% 30.03 in 10.0 mi ENE 11.5 mph 18.4 mph N/A   Mostly Cloudy
4:57 PM 78.8 °F - 61.0 °F 54% 30.04 in 10.0 mi NE 10.4 mph 18.4 mph N/A   Scattered Clouds
5:57 PM 75.2 °F - 61.0 °F 61% 30.06 in 10.0 mi ENE 11.5 mph 19.6 mph N/A   Overcast
6:57 PM 75.2 °F - 62.1 °F 64% 30.08 in 10.0 mi NE 12.7 mph 19.6 mph N/A   Mostly Cloudy
7:57 PM 71.6 °F - 62.1 °F 72% 30.09 in 10.0 mi NE 11.5 mph 19.6 mph N/A   Overcast
8:57 PM 71.6 °F - 63.0 °F 74% 30.10 in 10.0 mi NE 13.8 mph 18.4 mph N/A   Scattered Clouds
9:57 PM 71.6 °F - 63.0 °F 74% 30.09 in 10.0 mi ENE 10.4 mph 17.3 mph N/A   Scattered Clouds
10:57 PM 71.6 °F - 63.0 °F 74% 30.10 in 10.0 mi ENE 9.2 mph 17.3 mph N/A   Scattered Clouds
11:57 PM 71.6 °F - 62.1 °F 72% 30.09 in 10.0 mi ENE 8.1 mph - N/A   Partly Cloudy